sat.trackr.live / text

‹ back to catalog

STARLINK-32816

NORAD 63050 · 2025-034X

PAYLOAD ACTIVE UNKNOWN

§ Identity

Operator
Country
US
Launch date
2025-02-18
Launch site
AFETR
Launch vehicle
Mass (kg)
RCS (m²)

Purposes: comms

External: N2YO · Heavens-Above · Gunter

§ Orbital elements

Epoch: 2026-09-21T21:25:10.851744Z

Period
93.85 min
Inclination
53.1594°
Eccentricity
0.0001232
Mean motion
15.34392461 rev/d
Perigee alt
461.9 km
Apogee alt
463.6 km
Semi-major
6,840.9 km
B*
1.2039e-4
RAAN
75.4986°
Arg perigee
85.0635°
Mean anomaly
275.0508°
Rev number
8,900

§ Raw data

STARLINK-328161 63050U 25034X   26264.89248671  .00003692  00000+0  12039-3 0  99902 63050  53.1594  75.4986 0001232  85.0635 275.0508 15.34392461 89009

JSON: /api/v1/satellites/63050 · /tle

For live sub-satellite position, see the globe view (requires WebGL).

§ Visibility from observer

Set your observer location to see the next 7 days of passes ≥ 10°. The values pass through the URL so the page stays shareable.

No JS? Fill the form by hand. The geolocation button needs JavaScript.